Wetterdaten: Mittwoch, 17.03.2010
Datum Zeit Temp. A. Feuchte A. Luftdruck Regen Wind Richtung Richtung Sonnenschein UV Solar Windben
17.03.2010 00:00 5,2 C 83 % 1025,9 hPa 0,0 mm 1,6 km/h (1 Bft) SW 225 0 min 0 UV-I 0 W/m 4,8 km/h (1 Bft)
17.03.2010 00:10 5,2 C 83 % 1025,9 hPa 0,0 mm 0,0 km/h (0 Bft) W-SW 247 0 min 0 UV-I 0 W/m 4,8 km/h (1 Bft)
17.03.2010 00:20 5,1 C 82 % 1025,8 hPa 0,0 mm 1,6 km/h (1 Bft) SW 225 0 min 0 UV-I 0 W/m 6,4 km/h (2 Bft)
17.03.2010 00:30 5,1 C 83 % 1025,8 hPa 0,0 mm 0,0 km/h (0 Bft) W-SW 247 0 min 0 UV-I 0 W/m 4,8 km/h (1 Bft)
17.03.2010 00:40 4,8 C 83 % 1025,8 hPa 0,0 mm 0,0 km/h (0 Bft) W-SW 247 0 min 0 UV-I 0 W/m 4,8 km/h (1 Bft)
17.03.2010 00:50 4,5 C 84 % 1025,7 hPa 0,0 mm 0,0 km/h (0 Bft) SW 225 0 min 0 UV-I 0 W/m 3,2 km/h (1 Bft)
17.03.2010 01:00 4,2 C 85 % 1025,8 hPa 0,0 mm 0,0 km/h (0 Bft) SW 225 0 min 0 UV-I 0 W/m 6,4 km/h (2 Bft)
17.03.2010 01:10 4,1 C 85 % 1025,8 hPa 0,0 mm 0,0 km/h (0 Bft) SW 225 0 min 0 UV-I 0 W/m 3,2 km/h (1 Bft)
17.03.2010 01:20 3,9 C 85 % 1025,8 hPa 0,0 mm 0,0 km/h (0 Bft) SW 225 0 min 0 UV-I 0 W/m 6,4 km/h (2 Bft)
17.03.2010 01:30 3,8 C 85 % 1025,8 hPa 0,0 mm 0,0 km/h (0 Bft) SW 225 0 min 0 UV-I 0 W/m 6,4 km/h (2 Bft)
17.03.2010 01:40 3,7 C 85 % 1025,9 hPa 0,0 mm 0,0 km/h (0 Bft) SW 225 0 min 0 UV-I 0 W/m 3,2 km/h (1 Bft)
17.03.2010 01:50 3,7 C 85 % 1025,9 hPa 0,0 mm 0,0 km/h (0 Bft) SW 225 0 min 0 UV-I 0 W/m 1,6 km/h (1 Bft)
17.03.2010 02:00 3,6 C 85 % 1025,9 hPa 0,0 mm 0,0 km/h (0 Bft) SW 225 0 min 0 UV-I 0 W/m 1,6 km/h (1 Bft)
17.03.2010 02:10 3,3 C 85 % 1025,8 hPa 0,0 mm 0,0 km/h (0 Bft) SW 225 0 min 0 UV-I 0 W/m 1,6 km/h (1 Bft)
17.03.2010 02:20 3,0 C 86 % 1025,7 hPa 0,0 mm 0,0 km/h (0 Bft) SW 225 0 min 0 UV-I 0 W/m 1,6 km/h (1 Bft)
17.03.2010 02:30 2,6 C 86 % 1025,6 hPa 0,0 mm 0,0 km/h (0 Bft) N 0 0 min 0 UV-I 0 W/m 0,0 km/h (0 Bft)
17.03.2010 02:40 2,4 C 87 % 1025,6 hPa 0,0 mm 0,0 km/h (0 Bft) N 0 0 min 0 UV-I 0 W/m 0,0 km/h (0 Bft)
17.03.2010 02:50 2,4 C 88 % 1025,5 hPa 0,0 mm 0,0 km/h (0 Bft) N 0 0 min 0 UV-I 0 W/m 0,0 km/h (0 Bft)
17.03.2010 03:00 2,6 C 88 % 1025,5 hPa 0,0 mm 0,0 km/h (0 Bft) N 0 0 min 0 UV-I 0 W/m 0,0 km/h (0 Bft)
17.03.2010 03:10 2,7 C 88 % 1025,4 hPa 0,0 mm 0,0 km/h (0 Bft) SW 225 0 min 0 UV-I 0 W/m 1,6 km/h (1 Bft)
17.03.2010 03:20 2,8 C 88 % 1025,2 hPa 0,0 mm 0,0 km/h (0 Bft) SW 225 0 min 0 UV-I 0 W/m 1,6 km/h (1 Bft)
17.03.2010 03:30 2,8 C 88 % 1025,1 hPa 0,0 mm 0,0 km/h (0 Bft) N 0 0 min 0 UV-I 0 W/m 0,0 km/h (0 Bft)
17.03.2010 03:40 2,8 C 88 % 1025,0 hPa 0,0 mm 0,0 km/h (0 Bft) SW 225 0 min 0 UV-I 0 W/m 1,6 km/h (1 Bft)
17.03.2010 03:50 2,8 C 88 % 1024,9 hPa 0,0 mm 0,0 km/h (0 Bft) N 0 0 min 0 UV-I 0 W/m 0,0 km/h (0 Bft)
17.03.2010 04:00 2,8 C 88 % 1024,8 hPa 0,0 mm 0,0 km/h (0 Bft) N 0 0 min 0 UV-I 0 W/m 0,0 km/h (0 Bft)
17.03.2010 04:10 2,8 C 88 % 1024,7 hPa 0,0 mm 0,0 km/h (0 Bft) N 0 0 min 0 UV-I 0 W/m 0,0 km/h (0 Bft)
17.03.2010 04:20 2,8 C 88 % 1024,5 hPa 0,0 mm 0,0 km/h (0 Bft) SW 225 0 min 0 UV-I 0 W/m 3,2 km/h (1 Bft)
17.03.2010 04:30 2,8 C 88 % 1024,4 hPa 0,0 mm 0,0 km/h (0 Bft) SW 225 0 min 0 UV-I 0 W/m 3,2 km/h (1 Bft)
17.03.2010 04:40 2,9 C 88 % 1024,4 hPa 0,0 mm 0,0 km/h (0 Bft) SW 225 0 min 0 UV-I 0 W/m 1,6 km/h (1 Bft)
17.03.2010 04:50 2,9 C 88 % 1024,4 hPa 0,0 mm 0,0 km/h (0 Bft) SW 225 0 min 0 UV-I 0 W/m 1,6 km/h (1 Bft)
17.03.2010 05:00 3,0 C 88 % 1024,3 hPa 0,0 mm 0,0 km/h (0 Bft) N 0 0 min 0 UV-I 0 W/m 0,0 km/h (0 Bft)
17.03.2010 05:10 3,0 C 88 % 1024,3 hPa 0,0 mm 0,0 km/h (0 Bft) N 0 0 min 0 UV-I 0 W/m 0,0 km/h (0 Bft)
17.03.2010 05:20 3,1 C 88 % 1024,2 hPa 0,0 mm 0,0 km/h (0 Bft) N 0 0 min 0 UV-I 0 W/m 0,0 km/h (0 Bft)
17.03.2010 05:30 3,1 C 88 % 1024,1 hPa 0,0 mm 0,0 km/h (0 Bft) N 0 0 min 0 UV-I 0 W/m 0,0 km/h (0 Bft)
17.03.2010 05:40 3,1 C 88 % 1024,0 hPa 0,0 mm 0,0 km/h (0 Bft) N 0 0 min 0 UV-I 0 W/m 0,0 km/h (0 Bft)
17.03.2010 05:50 3,1 C 88 % 1024,0 hPa 0,0 mm 0,0 km/h (0 Bft) N 0 0 min 0 UV-I 0 W/m 0,0 km/h (0 Bft)
17.03.2010 06:00 3,1 C 88 % 1023,9 hPa 0,0 mm 0,0 km/h (0 Bft) N 0 0 min 0 UV-I 0 W/m 0,0 km/h (0 Bft)
17.03.2010 06:10 3,1 C 88 % 1023,8 hPa 0,0 mm 0,0 km/h (0 Bft) N 0 0 min 0 UV-I 0 W/m 0,0 km/h (0 Bft)
17.03.2010 06:20 3,2 C 88 % 1023,7 hPa 0,0 mm 0,0 km/h (0 Bft) N 0 0 min 0 UV-I 0 W/m 0,0 km/h (0 Bft)
17.03.2010 06:30 3,2 C 88 % 1023,6 hPa 0,0 mm 0,0 km/h (0 Bft) N 0 0 min 0 UV-I 0 W/m 0,0 km/h (0 Bft)
17.03.2010 06:40 3,2 C 88 % 1023,7 hPa 0,0 mm 0,0 km/h (0 Bft) N 0 0 min 0 UV-I 0 W/m 0,0 km/h (0 Bft)
17.03.2010 06:50 3,2 C 88 % 1023,8 hPa 0,0 mm 0,0 km/h (0 Bft) N 0 0 min 0 UV-I 5 W/m 0,0 km/h (0 Bft)
17.03.2010 07:00 3,2 C 88 % 1023,7 hPa 0,0 mm 0,0 km/h (0 Bft) N 0 0 min 0 UV-I 14 W/m 0,0 km/h (0 Bft)
17.03.2010 07:10 3,2 C 89 % 1023,7 hPa 0,0 mm 0,0 km/h (0 Bft) N 0 0 min 0 UV-I 26 W/m 0,0 km/h (0 Bft)
17.03.2010 07:20 3,2 C 89 % 1023,7 hPa 0,0 mm 0,0 km/h (0 Bft) N 0 0 min 0 UV-I 32 W/m 0,0 km/h (0 Bft)
17.03.2010 07:30 3,2 C 89 % 1023,8 hPa 0,0 mm 0,0 km/h (0 Bft) N 0 0 min 0 UV-I 33 W/m 0,0 km/h (0 Bft)
17.03.2010 07:40 3,2 C 89 % 1023,8 hPa 0,0 mm 0,0 km/h (0 Bft) N 0 0 min 0 UV-I 42 W/m 0,0 km/h (0 Bft)
17.03.2010 07:50 3,2 C 89 % 1023,8 hPa 0,0 mm 0,0 km/h (0 Bft) N 0 0 min 0 UV-I 77 W/m 0,0 km/h (0 Bft)
17.03.2010 08:00 3,3 C 89 % 1024,0 hPa 0,0 mm 0,0 km/h (0 Bft) SW 230 0 min 0 UV-I 91 W/m 0,0 km/h (0 Bft)
17.03.2010 08:10 3,4 C 89 % 1024,0 hPa 0,0 mm 0,0 km/h (0 Bft) SW 225 0 min 0 UV-I 109 W/m 1,6 km/h (1 Bft)
17.03.2010 08:20 3,7 C 90 % 1023,9 hPa 0,0 mm 0,0 km/h (0 Bft) SW 225 0 min 0 UV-I 127 W/m 4,8 km/h (1 Bft)
17.03.2010 08:30 4,2 C 89 % 1023,9 hPa 0,0 mm 1,6 km/h (1 Bft) SW 225 0 min 1 UV-I 120 W/m 8,0 km/h (2 Bft)
17.03.2010 08:40 4,7 C 89 % 1024,0 hPa 0,0 mm 1,6 km/h (1 Bft) SW 225 0 min 1 UV-I 135 W/m 6,4 km/h (2 Bft)
17.03.2010 08:50 5,9 C 80 % 1023,9 hPa 0,0 mm 1,6 km/h (1 Bft) W-SW 247 0 min 1 UV-I 176 W/m 9,7 km/h (2 Bft)
17.03.2010 09:00 6,8 C 76 % 1023,9 hPa 0,0 mm 3,2 km/h (1 Bft) SW 225 10 min 1 UV-I 225 W/m 11,3 km/h (2 Bft)
17.03.2010 09:10 7,3 C 74 % 1024,0 hPa 0,0 mm 4,8 km/h (1 Bft) W-SW 247 10 min 1 UV-I 253 W/m 11,3 km/h (2 Bft)
17.03.2010 09:20 7,6 C 73 % 1023,9 hPa 0,0 mm 4,8 km/h (1 Bft) S-SW 202 10 min 1 UV-I 239 W/m 11,3 km/h (2 Bft)
17.03.2010 09:30 7,7 C 72 % 1023,9 hPa 0,0 mm 4,8 km/h (1 Bft) W-SW 247 10 min 1 UV-I 267 W/m 11,3 km/h (2 Bft)
17.03.2010 09:40 7,9 C 71 % 1023,9 hPa 0,0 mm 4,8 km/h (1 Bft) SW 225 10 min 1 UV-I 308 W/m 17,7 km/h (3 Bft)
17.03.2010 09:50 8,2 C 70 % 1023,9 hPa 0,0 mm 6,4 km/h (2 Bft) W-SW 247 10 min 1 UV-I 311 W/m 19,3 km/h (3 Bft)
17.03.2010 10:00 8,3 C 70 % 1023,9 hPa 0,0 mm 4,8 km/h (1 Bft) W-SW 247 10 min 1 UV-I 285 W/m 17,7 km/h (3 Bft)
17.03.2010 10:10 8,4 C 67 % 1023,9 hPa 0,0 mm 8,0 km/h (2 Bft) W 270 10 min 1 UV-I 338 W/m 22,5 km/h (4 Bft)
17.03.2010 10:20 8,7 C 67 % 1023,8 hPa 0,0 mm 6,4 km/h (2 Bft) SW 225 10 min 2 UV-I 376 W/m 20,9 km/h (4 Bft)
17.03.2010 10:30 8,9 C 66 % 1023,8 hPa 0,0 mm 8,0 km/h (2 Bft) W-SW 247 10 min 2 UV-I 373 W/m 24,1 km/h (4 Bft)
17.03.2010 10:40 8,9 C 66 % 1023,8 hPa 0,0 mm 8,0 km/h (2 Bft) W-SW 247 10 min 2 UV-I 399 W/m 20,9 km/h (4 Bft)
17.03.2010 10:50 9,1 C 66 % 1023,8 hPa 0,0 mm 8,0 km/h (2 Bft) SW 225 10 min 2 UV-I 357 W/m 22,5 km/h (4 Bft)
17.03.2010 11:00 9,1 C 65 % 1023,8 hPa 0,0 mm 9,7 km/h (2 Bft) W-SW 247 10 min 2 UV-I 371 W/m 22,5 km/h (4 Bft)
17.03.2010 11:10 9,2 C 65 % 1023,8 hPa 0,0 mm 8,0 km/h (2 Bft) W-SW 247 10 min 2 UV-I 459 W/m 25,7 km/h (4 Bft)
17.03.2010 11:20 9,4 C 64 % 1023,7 hPa 0,0 mm 8,0 km/h (2 Bft) W-SW 247 10 min 2 UV-I 459 W/m 20,9 km/h (4 Bft)
17.03.2010 11:30 9,7 C 63 % 1023,7 hPa 0,0 mm 9,7 km/h (2 Bft) W 270 10 min 2 UV-I 519 W/m 20,9 km/h (4 Bft)
17.03.2010 11:40 10,1 C 62 % 1023,6 hPa 0,0 mm 6,4 km/h (2 Bft) W-SW 247 10 min 2 UV-I 599 W/m 22,5 km/h (4 Bft)
17.03.2010 11:50 10,3 C 62 % 1023,5 hPa 0,0 mm 6,4 km/h (2 Bft) SW 225 10 min 2 UV-I 552 W/m 16,1 km/h (3 Bft)
17.03.2010 12:00 10,4 C 61 % 1023,4 hPa 0,0 mm 8,0 km/h (2 Bft) W-SW 247 10 min 2 UV-I 520 W/m 22,5 km/h (4 Bft)
17.03.2010 12:10 10,7 C 60 % 1023,4 hPa 0,0 mm 8,0 km/h (2 Bft) W-SW 247 10 min 2 UV-I 455 W/m 17,7 km/h (3 Bft)
17.03.2010 12:20 10,9 C 58 % 1023,4 hPa 0,0 mm 8,0 km/h (2 Bft) W-SW 247 10 min 2 UV-I 450 W/m 24,1 km/h (4 Bft)
17.03.2010 12:30 10,9 C 58 % 1023,3 hPa 0,0 mm 11,3 km/h (2 Bft) W 270 10 min 2 UV-I 621 W/m 24,1 km/h (4 Bft)
17.03.2010 12:40 11,1 C 56 % 1023,4 hPa 0,0 mm 9,7 km/h (2 Bft) W 270 10 min 2 UV-I 540 W/m 22,5 km/h (4 Bft)
17.03.2010 12:50 11,0 C 57 % 1023,3 hPa 0,0 mm 11,3 km/h (2 Bft) W-SW 247 10 min 2 UV-I 571 W/m 24,1 km/h (4 Bft)
17.03.2010 13:00 11,3 C 56 % 1023,2 hPa 0,0 mm 8,0 km/h (2 Bft) W 270 10 min 3 UV-I 768 W/m 19,3 km/h (3 Bft)
17.03.2010 13:10 11,6 C 56 % 1023,2 hPa 0,0 mm 9,7 km/h (2 Bft) W 270 10 min 3 UV-I 687 W/m 20,9 km/h (4 Bft)
17.03.2010 13:20 10,9 C 58 % 1023,1 hPa 0,0 mm 8,0 km/h (2 Bft) W-SW 247 10 min 3 UV-I 715 W/m 20,9 km/h (4 Bft)
17.03.2010 13:30 11,5 C 55 % 1023,0 hPa 0,0 mm 8,0 km/h (2 Bft) W-SW 247 10 min 3 UV-I 715 W/m 17,7 km/h (3 Bft)
17.03.2010 13:40 12,0 C 55 % 1022,9 hPa 0,0 mm 6,4 km/h (2 Bft) W-SW 247 10 min 3 UV-I 694 W/m 19,3 km/h (3 Bft)
17.03.2010 13:50 11,9 C 56 % 1022,8 hPa 0,0 mm 6,4 km/h (2 Bft) W-SW 247 10 min 2 UV-I 701 W/m 24,1 km/h (4 Bft)
17.03.2010 14:00 12,6 C 54 % 1022,6 hPa 0,0 mm 8,0 km/h (2 Bft) W 270 10 min 2 UV-I 691 W/m 20,9 km/h (4 Bft)
17.03.2010 14:10 12,6 C 54 % 1022,6 hPa 0,0 mm 8,0 km/h (2 Bft) W 270 10 min 2 UV-I 578 W/m 19,3 km/h (3 Bft)
17.03.2010 14:20 12,3 C 53 % 1022,5 hPa 0,0 mm 9,7 km/h (2 Bft) W-SW 247 10 min 2 UV-I 478 W/m 27,4 km/h (4 Bft)
17.03.2010 14:30 12,3 C 53 % 1022,4 hPa 0,0 mm 9,7 km/h (2 Bft) W-SW 247 10 min 2 UV-I 499 W/m 27,4 km/h (4 Bft)
17.03.2010 14:40 12,3 C 53 % 1022,2 hPa 0,0 mm 6,4 km/h (2 Bft) W 270 10 min 2 UV-I 501 W/m 19,3 km/h (3 Bft)
17.03.2010 14:50 12,7 C 51 % 1022,1 hPa 0,0 mm 9,7 km/h (2 Bft) W-SW 247 10 min 2 UV-I 503 W/m 22,5 km/h (4 Bft)
17.03.2010 15:00 12,7 C 52 % 1022,0 hPa 0,0 mm 8,0 km/h (2 Bft) W-SW 247 10 min 2 UV-I 476 W/m 19,3 km/h (3 Bft)
17.03.2010 15:10 13,1 C 51 % 1022,0 hPa 0,0 mm 6,4 km/h (2 Bft) W-SW 247 10 min 2 UV-I 476 W/m 20,9 km/h (4 Bft)
17.03.2010 15:20 13,1 C 51 % 1022,2 hPa 0,0 mm 8,0 km/h (2 Bft) W-SW 247 10 min 1 UV-I 450 W/m 22,5 km/h (4 Bft)
17.03.2010 15:30 12,9 C 51 % 1022,3 hPa 0,0 mm 11,3 km/h (2 Bft) W-SW 247 10 min 1 UV-I 431 W/m 24,1 km/h (4 Bft)
17.03.2010 15:40 12,7 C 52 % 1022,2 hPa 0,0 mm 9,7 km/h (2 Bft) W 270 10 min 1 UV-I 396 W/m 24,1 km/h (4 Bft)
17.03.2010 15:50 12,6 C 52 % 1022,2 hPa 0,0 mm 6,4 km/h (2 Bft) W-SW 247 10 min 1 UV-I 343 W/m 22,5 km/h (4 Bft)
17.03.2010 16:00 12,4 C 53 % 1022,2 hPa 0,0 mm 8,0 km/h (2 Bft) W-SW 252 10 min 1 UV-I 213 W/m 16,1 km/h (3 Bft)
17.03.2010 16:10 12,4 C 52 % 1022,2 hPa 0,0 mm 8,0 km/h (2 Bft) W 270 10 min 1 UV-I 244 W/m 24,1 km/h (4 Bft)
17.03.2010 16:20 12,4 C 53 % 1022,0 hPa 0,0 mm 4,8 km/h (1 Bft) W-SW 247 10 min 1 UV-I 209 W/m 19,3 km/h (3 Bft)
17.03.2010 16:30 12,4 C 52 % 1022,0 hPa 0,0 mm 6,4 km/h (2 Bft) W-SW 247 10 min 1 UV-I 195 W/m 16,1 km/h (3 Bft)
17.03.2010 16:40 12,3 C 52 % 1022,0 hPa 0,0 mm 6,4 km/h (2 Bft) W-SW 247 10 min 1 UV-I 162 W/m 17,7 km/h (3 Bft)
17.03.2010 16:50 12,2 C 54 % 1022,0 hPa 0,0 mm 6,4 km/h (2 Bft) W-SW 247 10 min 1 UV-I 141 W/m 16,1 km/h (3 Bft)
17.03.2010 17:00 12,1 C 55 % 1022,0 hPa 0,0 mm 4,8 km/h (1 Bft) W-SW 247 0 min 1 UV-I 114 W/m 16,1 km/h (3 Bft)
17.03.2010 17:10 11,9 C 55 % 1022,0 hPa 0,0 mm 6,4 km/h (2 Bft) W-SW 247 0 min 0 UV-I 100 W/m 16,1 km/h (3 Bft)
17.03.2010 17:20 11,8 C 56 % 1022,0 hPa 0,0 mm 3,2 km/h (1 Bft) W-SW 247 0 min 0 UV-I 86 W/m 14,5 km/h (3 Bft)
17.03.2010 17:30 11,7 C 58 % 1022,1 hPa 0,0 mm 1,6 km/h (1 Bft) W 270 0 min 0 UV-I 70 W/m 6,4 km/h (2 Bft)
17.03.2010 17:40 11,5 C 58 % 1022,0 hPa 0,0 mm 1,6 km/h (1 Bft) SW 225 0 min 0 UV-I 54 W/m 4,8 km/h (1 Bft)
17.03.2010 17:50 11,4 C 58 % 1022,0 hPa 0,0 mm 1,6 km/h (1 Bft) W-SW 247 0 min 0 UV-I 44 W/m 4,8 km/h (1 Bft)
17.03.2010 18:00 11,2 C 58 % 1022,1 hPa 0,0 mm 1,6 km/h (1 Bft) W-SW 247 0 min 0 UV-I 33 W/m 6,4 km/h (2 Bft)
17.03.2010 18:10 11,1 C 59 % 1022,1 hPa 0,0 mm 1,6 km/h (1 Bft) W-SW 247 0 min 0 UV-I 25 W/m 4,8 km/h (1 Bft)
17.03.2010 18:20 10,8 C 61 % 1022,1 hPa 0,0 mm 0,0 km/h (0 Bft) W-SW 247 10 min 0 UV-I 16 W/m 3,2 km/h (1 Bft)
17.03.2010 18:30 10,5 C 61 % 1022,1 hPa 0,0 mm 0,0 km/h (0 Bft) W-SW 247 0 min 0 UV-I 7 W/m 4,8 km/h (1 Bft)
17.03.2010 18:40 10,3 C 62 % 1022,1 hPa 0,0 mm 0,0 km/h (0 Bft) W-SW 247 0 min 0 UV-I 0 W/m 3,2 km/h (1 Bft)
17.03.2010 18:50 10,1 C 62 % 1022,1 hPa 0,0 mm 0,0 km/h (0 Bft) W-SW 247 0 min 0 UV-I 0 W/m 3,2 km/h (1 Bft)
17.03.2010 19:00 9,8 C 63 % 1022,2 hPa 0,0 mm 0,0 km/h (0 Bft) W-SW 247 0 min 0 UV-I 0 W/m 1,6 km/h (1 Bft)
17.03.2010 19:10 9,5 C 65 % 1022,2 hPa 0,0 mm 0,0 km/h (0 Bft) W-SW 247 0 min 0 UV-I 0 W/m 1,6 km/h (1 Bft)
17.03.2010 19:20 9,2 C 67 % 1022,3 hPa 0,0 mm 0,0 km/h (0 Bft) W-SW 247 0 min 0 UV-I 0 W/m 1,6 km/h (1 Bft)
17.03.2010 19:30 9,0 C 67 % 1022,2 hPa 0,0 mm 0,0 km/h (0 Bft) W-SW 247 0 min 0 UV-I 0 W/m 1,6 km/h (1 Bft)
17.03.2010 19:40 8,8 C 68 % 1022,2 hPa 0,0 mm 0,0 km/h (0 Bft) SW 225 0 min 0 UV-I 0 W/m 1,6 km/h (1 Bft)
17.03.2010 19:50 8,6 C 69 % 1022,3 hPa 0,0 mm 0,0 km/h (0 Bft) SW 225 0 min 0 UV-I 0 W/m 1,6 km/h (1 Bft)
17.03.2010 20:00 8,4 C 69 % 1022,2 hPa 0,0 mm 0,0 km/h (0 Bft) SW 225 0 min 0 UV-I 0 W/m 1,6 km/h (1 Bft)
17.03.2010 20:10 8,3 C 68 % 1022,2 hPa 0,0 mm 0,0 km/h (0 Bft) SW 225 0 min 0 UV-I 0 W/m 1,6 km/h (1 Bft)
17.03.2010 20:20 8,2 C 68 % 1022,3 hPa 0,0 mm 0,0 km/h (0 Bft) SW 225 0 min 0 UV-I 0 W/m 1,6 km/h (1 Bft)
17.03.2010 20:30 7,9 C 68 % 1022,2 hPa 0,0 mm 0,0 km/h (0 Bft) SW 225 0 min 0 UV-I 0 W/m 1,6 km/h (1 Bft)
17.03.2010 20:40 8,0 C 67 % 1022,1 hPa 0,0 mm 0,0 km/h (0 Bft) SW 225 0 min 0 UV-I 0 W/m 1,6 km/h (1 Bft)
17.03.2010 20:50 8,1 C 67 % 1022,1 hPa 0,0 mm 0,0 km/h (0 Bft) SW 225 0 min 0 UV-I 0 W/m 4,8 km/h (1 Bft)
17.03.2010 21:00 8,1 C 67 % 1022,2 hPa 0,0 mm 0,0 km/h (0 Bft) SW 225 0 min 0 UV-I 0 W/m 6,4 km/h (2 Bft)
17.03.2010 21:10 8,0 C 67 % 1022,2 hPa 0,0 mm 0,0 km/h (0 Bft) SW 225 0 min 0 UV-I 0 W/m 6,4 km/h (2 Bft)
17.03.2010 21:20 7,9 C 67 % 1022,2 hPa 0,0 mm 0,0 km/h (0 Bft) SW 225 0 min 0 UV-I 0 W/m 1,6 km/h (1 Bft)
17.03.2010 21:30 7,7 C 68 % 1022,3 hPa 0,0 mm 0,0 km/h (0 Bft) SW 225 0 min 0 UV-I 0 W/m 1,6 km/h (1 Bft)
17.03.2010 21:40 7,6 C 68 % 1022,3 hPa 0,0 mm 0,0 km/h (0 Bft) SW 225 0 min 0 UV-I 0 W/m 1,6 km/h (1 Bft)
17.03.2010 21:50 7,4 C 69 % 1022,3 hPa 0,0 mm 0,0 km/h (0 Bft) SW 225 0 min 0 UV-I 0 W/m 1,6 km/h (1 Bft)
17.03.2010 22:00 7,3 C 69 % 1022,4 hPa 0,0 mm 0,0 km/h (0 Bft) SW 225 0 min 0 UV-I 0 W/m 4,8 km/h (1 Bft)
17.03.2010 22:10 7,4 C 69 % 1022,3 hPa 0,0 mm 0,0 km/h (0 Bft) SW 225 0 min 0 UV-I 0 W/m 6,4 km/h (2 Bft)
17.03.2010 22:20 7,5 C 69 % 1022,2 hPa 0,0 mm 0,0 km/h (0 Bft) SW 225 0 min 0 UV-I 0 W/m 6,4 km/h (2 Bft)
17.03.2010 22:30 7,4 C 69 % 1022,4 hPa 0,0 mm 0,0 km/h (0 Bft) SW 225 0 min 0 UV-I 0 W/m 4,8 km/h (1 Bft)
17.03.2010 22:40 7,3 C 70 % 1022,4 hPa 0,0 mm 0,0 km/h (0 Bft) SW 225 0 min 0 UV-I 0 W/m 1,6 km/h (1 Bft)
17.03.2010 22:50 7,1 C 71 % 1022,4 hPa 0,0 mm 0,0 km/h (0 Bft) SW 225 0 min 0 UV-I 0 W/m 1,6 km/h (1 Bft)
17.03.2010 23:00 6,7 C 72 % 1022,4 hPa 0,0 mm 0,0 km/h (0 Bft) N 0 0 min 0 UV-I 0 W/m 0,0 km/h (0 Bft)
17.03.2010 23:10 5,9 C 75 % 1022,5 hPa 0,0 mm 0,0 km/h (0 Bft) N 0 0 min 0 UV-I 0 W/m 0,0 km/h (0 Bft)
17.03.2010 23:20 5,3 C 77 % 1022,5 hPa 0,0 mm 0,0 km/h (0 Bft) N 0 0 min 0 UV-I 0 W/m 0,0 km/h (0 Bft)
17.03.2010 23:30 5,1 C 78 % 1022,6 hPa 0,0 mm 0,0 km/h (0 Bft) SW 225 0 min 0 UV-I 0 W/m 1,6 km/h (1 Bft)
17.03.2010 23:40 5,6 C 75 % 1022,1 hPa 0,0 mm 0,0 km/h (0 Bft) N 0 0 min 0 UV-I 0 W/m 0,0 km/h (0 Bft)
17.03.2010 23:50 5,4 C 76 % 1022,5 hPa 0,0 mm 0,0 km/h (0 Bft) N 0 0 min 0 UV-I 0 W/m 0,0 km/h (0 Bft)
_ Min-Zeit 02:30 14:50 15:00 - 00:10 - - - - - 02:30
Minimum _ 2,4 C 51 % 1022,0 hPa - 0,0 km/h (0 Bft) - - - - - 0,0 km/h (0 Bft)
_ Max-Zeit 15:10 08:20 00:00 00:00 12:30 - - 09:00 13:00 13:00 14:20
Maximum _ 13,1 C 90 % 1025,9 hPa 0,0 mm 11,3 km/h
W (2 Bft)
- - 10 min 3 UV-I 768 W/m 27,4 km/h
W-SW (4 Bft)
Durchschnitt _ 7,4 C 72 % 1023,4 hPa #0,0 mm 2,7 km/h (1 Bft) W-SW - #8:10 h 2 UV-I 319 W/m 8,6 km/h (2 Bft)